Westfield, MA

4:11 AM EST on November 23, 2017 (GMT -0500)
Barnes Municipal

Weather History for KBAF - April, 2014

Change the Weather History Date:

Sunday, April 6, 2014

  Actual Average Record
Temperature  
Mean Temperature 46 °F -  
Max Temperature 59 °F 51 °F 72 °F (2005)
Min Temperature 34 °F 30 °F 18 °F (2016)
Degree Days  
Heating Degree Days 20    
Moisture  
Dew Point 20 °F    
Average Humidity 41    
Maximum Humidity 68    
Minimum Humidity 17    
Precipitation  
Precipitation 0.00 in - - ()
Sea Level Pressure  
Sea Level Pressure 30.11 in    
Wind  
Wind Speed 11 mph (NW)    
Max Wind Speed 20 mph    
Max Gust Speed 30 mph    
Visibility 10 miles    
Events      
Averages and records for this station are not official NWS values.
T = Trace of Precipitation, MM = Missing Value Source: NWS Daily Summary

Daily Weather History Graph

Daily Weather History Graph

Search for Another Location

Airport or City:

Trip Planner

Search our weather history database for the weather conditions in past years. The results will help you decide how hot, cold, wet, or windy it might be!

Date:

Astronomy

Apr. 06, 2014 Rise Set
Actual Time 6:25 AM EDT 7:22 PM EDT
Civil Twilight 5:56 AM EDT 7:50 PM EDT
Nautical Twilight 5:22 AM EDT 8:24 PM EDT
Astronomical Twilight 4:47 AM EDT 9:00 PM EDT
Moon 11:20 AM EDT (4/6) 1:19 AM EDT (4/6)
Length of Visible Light 13h 54m
Length of Day
12h 57m
Waxing Crescent, 43% of the Moon is Illuminated
Apr 6
Waxing Crescent
Apr 7
First Quarter
Apr 15
Full
Apr 22
Last Quarter
Apr 29
New

Hourly Weather History & Observations

Time (EDT) Temp. Windchill Dew Point Humidity Pressure Visibility Wind Dir Wind Speed Gust Speed Precip Events Conditions
12:53 AM 37.0 °F 26.7 °F 21.0 °F 52% 30.00 in 10.0 mi WNW 19.6 mph 29.9 mph N/A   Clear
1:53 AM 37.0 °F 28.1 °F 21.0 °F 52% 30.02 in 10.0 mi NW 15.0 mph 25.3 mph N/A   Clear
2:53 AM 36.0 °F 29.6 °F 21.9 °F 57% 30.02 in 10.0 mi NW 8.1 mph 23.0 mph N/A   Clear
3:53 AM 35.1 °F 28.6 °F 21.9 °F 59% 30.04 in 10.0 mi NW 8.1 mph - N/A   Clear
4:53 AM 35.1 °F 26.9 °F 21.0 °F 57% 30.05 in 10.0 mi NW 11.5 mph - N/A   Clear
5:53 AM 34.0 °F 25.5 °F 21.0 °F 59% 30.09 in 10.0 mi NW 11.5 mph - N/A   Clear
6:53 AM 34.0 °F 26.0 °F 19.9 °F 56% 30.12 in 10.0 mi NW 10.4 mph 19.6 mph N/A   Clear
7:53 AM 36.0 °F 30.3 °F 19.9 °F 52% 30.14 in 10.0 mi WNW 6.9 mph - N/A   Clear
8:53 AM 39.0 °F 33.4 °F 19.9 °F 46% 30.14 in 10.0 mi WNW 8.1 mph - N/A   Clear
9:53 AM 43.0 °F 37.7 °F 18.0 °F 37% 30.15 in 10.0 mi North 9.2 mph 19.6 mph N/A   Clear
10:53 AM 45.0 °F 41.2 °F 16.0 °F 31% 30.15 in 10.0 mi Variable 6.9 mph - N/A   Clear
11:53 AM 50.0 °F - 17.1 °F 27% 30.14 in 10.0 mi NW 9.2 mph 18.4 mph N/A   Clear
12:53 PM 52.0 °F - 16.0 °F 24% 30.13 in 10.0 mi NW 11.5 mph 17.3 mph N/A   Clear
1:53 PM 54.0 °F - 14.0 °F 21% 30.12 in 10.0 mi NW 10.4 mph - N/A   Clear
2:53 PM 57.0 °F - 12.9 °F 18% 30.11 in 10.0 mi NNW 13.8 mph - N/A   Clear
3:53 PM 57.9 °F - 12.9 °F 17% 30.12 in 10.0 mi NNW 5.8 mph - N/A   Clear
4:53 PM 57.9 °F - 17.1 °F 20% 30.11 in 10.0 mi NW 8.1 mph - N/A   Clear
5:53 PM 57.9 °F - 19.0 °F 22% 30.11 in 10.0 mi NW 10.4 mph - N/A   Clear
6:53 PM 55.9 °F - 21.0 °F 26% 30.12 in 10.0 mi NW 8.1 mph - N/A   Clear
7:53 PM 50.0 °F - 23.0 °F 35% 30.14 in 10.0 mi WNW 4.6 mph - N/A   Clear
8:53 PM 44.1 °F - 23.0 °F 43% 30.16 in 10.0 mi Calm Calm - N/A   Clear
9:53 PM 42.1 °F - 24.1 °F 49% 30.18 in 9.0 mi Calm Calm - N/A   Clear
10:53 PM 37.9 °F - 28.0 °F 68% 30.21 in 10.0 mi Calm Calm - N/A   Clear
11:53 PM 35.1 °F - 25.0 °F 67% 30.19 in 10.0 mi Calm Calm - N/A   Clear